Wind_Speed
29 28 28 27 28 28 27 27 28 29 29 29 29 29 29 28 28 27 26 26 26 23 20 21 21 19 18 19 19 18 18 18 18 17 16 16 16 16 18 19 20 22
28 27 27 28 28 28 28 27 27 28 28 29 31 30 29 27 26 25 25 26 25 22 20 21 21 20 20 20 19 19 18 18 18 17 16 16 16 17 18 19 21 22
28 27 27 28 28 29 28 27 28 29 29 31 32 31 29 26 24 23 23 24 23 21 21 22 23 23 22 21 20 19 18 17 17 16 16 16 16 17 18 20 21 23
28 26 26 27 28 28 27 27 28 30 30 31 31 29 27 25 23 21 21 22 21 21 21 22 24 24 22 20 19 18 17 16 16 16 15 15 16 17 19 20 22 24
27 24 24 26 27 26 26 27 28 28 29 31 29 26 24 24 24 21 21 21 20 21 21 21 23 23 20 19 18 17 16 16 16 15 15 15 16 17 19 21 23 25
25 23 23 24 25 25 25 26 26 26 27 28 24 21 21 23 23 20 19 19 18 19 22 22 22 20 19 18 17 16 15 15 15 15 14 15 16 18 20 22 24 25
21 20 21 23 25 25 25 25 24 24 24 21 18 18 20 20 19 18 18 17 15 16 18 20 19 18 17 16 15 14 14 15 14 14 14 15 17 19 21 22 23 23
20 18 18 20 22 23 23 23 23 23 22 19 17 16 16 16 17 18 18 17 17 16 16 17 17 16 16 14 14 14 14 14 14 14 15 16 18 20 21 21 21 22
20 19 19 20 21 22 23 24 23 23 22 19 17 15 14 15 15 16 18 18 18 16 14 14 15 14 14 14 14 14 14 13 13 14 15 17 19 20 20 20 21 22
19 20 20 21 22 23 25 25 25 24 23 20 17 15 14 15 15 15 17 17 15 12 11 12 13 13 14 14 14 14 13 13 14 15 17 18 19 19 19 20 22 23
18 19 19 20 21 23 24 26 25 24 23 21 18 14 13 14 15 14 14 12 10 9 9 11 12 13 14 15 14 14 14 14 15 16 18 19 20 19 20 21 23 24
17 18 19 19 20 22 23 24 24 22 20 19 17 15 13 14 15 13 12 10 9 8 9 10 12 13 14 14 14 14 14 15 17 18 19 20 21 21 21 23 25 25
16 18 18 18 19 20 21 21 21 20 18 17 17 16 15 16 15 13 12 10 9 9 10 11 12 13 14 14 15 15 16 17 18 19 21 22 22 22 23 25 25 25
16 17 17 16 17 18 18 18 18 18 17 16 16 15 15 15 14 12 11 10 10 10 10 11 12 13 14 15 16 16 17 19 20 21 23 23 23 24 25 26 25 24
16 16 16 15 15 15 16 16 17 17 16 15 14 13 13 12 11 10 10 10 10 10 10 11 12 14 14 15 17 18 19 20 21 23 24 24 25 25 25 25 24 24
15 15 14 14 14 13 13 14 15 15 13 11 12 11 10 9 9 10 10 10 10 10 11 12 13 14 15 16 17 18 20 21 22 23 24 24 24 24 24 23 23 23
14 13 13 13 13 13 12 12 12 12 10 8 9 9 9 9 9 10 11 11 11 11 12 12 13 14 15 16 18 19 20 21 22 23 23 23 23 22 22 22 23 23
12 12 13 13 13 14 12 10 10 10 9 8 9 10 11 11 10 11 12 12 13 13 14 15 16 17 18 18 19 19 21 22 22 22 22 21 22 22 22 22 23 23
11 12 13 14 14 13 12 10 9 10 9 9 10 11 13 13 12 12 13 13 13 15 16 17 18 19 19 20 20 20 21 22 22 22 21 21 21 22 22 22 23 23
11 12 13 13 13 13 12 11 11 11 11 11 11 11 12 13 13 13 13 12 13 15 16 18 18 19 19 20 21 21 22 22 21 21 21 21 21 22 22 22 22 23
12 12 12 13 13 14 13 13 13 13 12 12 12 12 11 11 12 13 13 14 15 17 18 19 19 20 20 21 21 22 22 21 21 21 22 22 21 21 22 22 22 23
13 13 13 13 14 14 15 15 15 14 14 14 14 14 13 12 12 14 15 17 18 19 20 20 21 21 22 22 22 23 22 21 22 22 22 21 21 21 22 22 23 23
14 15 15 15 15 15 16 17 17 18 18 18 17 16 15 15 15 16 17 19 20 21 21 22 22 22 23 23 23 23 22 22 22 21 21 21 21 22 22 22 23 23
15 16 17 17 17 18 19 20 20 21 21 21 20 19 18 18 18 18 19 20 22 22 22 24 24 24 23 24 23 23 22 22 21 21 22 22 22 22 23 23 23 23
16 17 18 19 19 20 20 21 21 21 21 21 21 21 22 22 21 21 21 22 23 24 24 25 24 24 24 24 23 22 22 21 21 21 22 22 22 23 23 23 24 24
20 20 20 21 21 20 20 21 21 22 22 22 22 23 23 23 23 23 23 24 24 25 25 26 25 25 25 24 22 22 21 21 21 21 22 22 23 23 23 24 24 25
Wind_Direction
274 278 281 283 285 287 290 292 293 294 292 290 287 285 286 283 274 266 257 253 259 264 262 258 258 259 255 255 262 269 273 278 280 280 281 285 292 297 300 302 303 306
278 282 283 283 285 286 288 291 294 297 295 291 289 285 281 277 266 257 257 259 262 262 256 253 255 256 252 253 261 266 270 275 275 276 280 287 294 297 299 302 304 307
280 283 285 285 286 287 291 294 294 296 297 297 295 285 276 269 257 251 255 259 259 255 251 252 253 251 248 251 259 263 267 271 272 275 282 289 294 296 300 303 306 308
280 284 287 287 289 293 298 299 297 297 297 300 297 284 271 262 252 249 252 256 256 249 248 253 251 244 244 252 258 262 266 268 271 277 284 289 293 298 302 304 305 307
280 288 290 291 294 297 299 298 298 299 299 302 298 282 269 259 250 246 249 254 253 248 251 255 247 240 245 254 257 261 264 267 272 279 284 288 295 300 302 303 305 306
283 292 294 294 296 298 298 298 300 302 302 304 300 282 269 260 248 241 244 251 254 256 258 255 246 243 249 253 255 258 261 266 273 278 284 291 297 299 301 303 304 305
286 295 295 295 295 296 299 300 303 304 304 307 305 288 271 258 247 240 241 247 256 263 260 251 245 246 247 249 252 255 261 268 274 279 287 293 296 298 301 303 305 306
287 292 296 299 298 298 300 301 303 304 303 307 311 299 276 259 252 247 245 251 261 263 252 242 242 244 245 247 249 254 262 268 275 282 288 292 294 297 301 303 305 307
285 288 293 298 298 298 299 300 300 300 300 301 305 297 276 263 262 258 255 259 263 257 245 239 239 240 240 243 248 255 262 268 275 282 286 289 293 296 300 303 305 306
285 288 291 292 293 295 297 297 297 297 296 296 296 291 274 265 268 267 262 260 257 247 238 235 234 235 239 244 250 257 264 270 277 281 284 289 292 294 298 302 304 305
286 288 290 291 293 295 295 295 296 295 292 287 286 287 276 266 269 268 257 247 237 228 227 230 232 237 243 248 254 261 267 272 276 279 284 288 289 291 296 301 303 304
284 286 288 292 295 295 294 294 295 294 289 281 279 282 278 268 264 257 241 224 216 219 227 233 238 243 248 254 260 266 269 272 275 280 284 286 286 287 292 299 303 305
282 285 289 293 295 295 297 299 299 297 291 284 278 278 277 268 256 243 230 221 221 226 233 240 245 250 255 260 265 267 270 273 277 281 283 285 285 285 289 297 302 303
280 283 287 290 293 297 303 310 314 309 296 284 281 278 270 256 242 233 232 231 232 235 240 247 253 256 261 264 267 270 272 275 278 281 283 285 285 285 289 296 300 301
277 281 283 285 291 300 307 314 321 320 303 280 274 271 257 244 237 240 243 240 240 244 248 253 257 261 265 268 271 274 276 278 281 282 284 285 284 285 289 294 298 300
272 276 278 281 290 299 305 308 316 327 321 286 266 259 252 248 252 255 254 251 251 254 256 259 262 265 269 272 274 277 279 281 282 283 284 284 284 286 289 294 297 299
268 271 272 277 286 294 301 304 307 322 333 313 286 276 274 273 268 263 262 261 261 262 264 267 269 271 274 276 279 281 283 284 285 284 284 284 284 287 291 294 296 298
263 266 269 274 283 288 294 300 303 312 324 322 309 294 287 284 277 273 272 269 267 268 271 276 278 278 278 279 281 284 285 285 284 283 283 283 286 289 292 294 295 297
259 261 266 272 278 281 285 291 298 304 309 314 313 303 293 284 279 282 282 276 272 271 274 279 281 279 277 278 280 283 283 283 282 281 282 284 287 290 291 292 294 296
256 257 263 271 275 277 280 285 291 296 298 303 309 309 301 288 282 284 284 280 278 278 279 280 280 279 277 278 280 281 281 280 280 280 282 284 286 287 289 292 294 294
256 259 263 268 272 275 277 280 284 288 292 297 302 307 304 292 283 281 281 283 284 283 281 279 279 279 279 279 280 280 279 279 279 280 282 283 284 286 290 292 293 293
260 264 266 267 269 271 272 276 282 286 291 294 295 298 298 293 286 281 281 283 285 285 283 280 279 279 279 280 280 278 277 278 279 280 281 282 284 288 290 292 292 292
266 268 271 272 271 269 269 274 279 284 289 291 291 291 291 290 287 285 284 283 283 283 281 279 280 280 280 280 279 277 276 277 279 280 281 283 286 289 290 291 291 292
272 274 276 276 274 273 274 276 278 280 283 285 287 287 287 286 285 284 283 281 280 279 277 277 279 280 281 281 278 276 276 278 279 281 282 285 288 289 290 290 291 292
277 279 281 282 281 280 278 276 276 277 278 279 281 284 286 288 286 284 281 279 278 277 276 276 278 280 281 280 277 275 277 278 280 282 284 286 287 288 289 290 291 292
279 281 285 287 287 284 278 275 273 273 273 274 275 279 282 284 285 284 282 280 278 277 277 277 277 278 280 279 276 276 277 279 281 283 284 285 286 287 289 290 291 293
Height
5798 5798 5798 5798 5798 5798 5798 5798 5797 5797 5796 5795 5795 5794 5794 5794 5794 5795 5796 5797 5797 5798 5799 5800 5801 5803 5804 5805 5806 5807 5807 5807 5808 5808 5807 5807 5807 5806 5806 5806 5805 5804
5796 5796 5796 5795 5795 5795 5795 5795 5795 5794 5793 5792 5792 5792 5792 5792 5792 5793 5794 5794 5795 5796 5797 5798 5800 5801 5802 5803 5804 5805 5805 5806 5806 5806 5806 5805 5805 5805 5804 5804 5803 5802
5793 5794 5794 5793 5792 5792 5792 5793 5793 5791 5790 5789 5789 5788 5788 5789 5789 5790 5791 5792 5794 5795 5796 5797 5798 5799 5801 5802 5803 5803 5804 5804 5804 5804 5804 5803 5803 5803 5802 5802 5801 5800
5791 5792 5792 5791 5790 5790 5790 5790 5790 5789 5787 5786 5785 5784 5785 5786 5786 5788 5789 5790 5791 5793 5794 5795 5796 5797 5799 5800 5801 5801 5802 5802 5802 5802 5802 5801 5801 5801 5800 5800 5799 5798
5789 5790 5790 5789 5788 5788 5787 5787 5786 5786 5784 5783 5781 5781 5782 5783 5784 5786 5787 5788 5790 5791 5792 5793 5794 5795 5797 5798 5799 5799 5800 5800 5800 5800 5800 5799 5799 5799 5798 5798 5797 5796
5787 5788 5788 5787 5786 5785 5785 5784 5784 5783 5782 5780 5778 5779 5780 5781 5782 5784 5785 5786 5788 5789 5790 5791 5792 5793 5795 5796 5797 5797 5798 5798 5798 5798 5798 5797 5797 5797 5796 5796 5795 5794
5786 5786 5785 5785 5784 5783 5783 5782 5782 5781 5780 5779 5778 5778 5779 5780 5781 5782 5783 5785 5787 5788 5789 5790 5791 5792 5793 5794 5795 5795 5796 5796 5796 5796 5796 5796 5795 5795 5794 5794 5793 5792
5785 5784 5783 5783 5782 5781 5781 5781 5780 5780 5780 5779 5778 5778 5778 5779 5780 5781 5783 5784 5785 5786 5787 5788 5789 5790 5791 5792 5793 5794 5794 5794 5794 5794 5794 5793 5793 5793 5792 5792 5791 5790
5782 5782 5782 5781 5780 5780 5780 5779 5779 5779 5779 5779 5778 5778 5778 5778 5779 5781 5782 5783 5784 5785 5785 5786 5788 5789 5790 5791 5791 5792 5792 5792 5792 5792 5792 5791 5791 5791 5790 5790 5789 5788
5780 5780 5780 5779 5779 5778 5778 5778 5777 5777 5777 5778 5778 5777 5777 5778 5779 5780 5781 5781 5782 5783 5784 5785 5786 5787 5788 5789 5789 5789 5789 5789 5789 5789 5789 5789 5789 5789 5788 5787 5786 5785
5778 5778 5778 5777 5777 5777 5777 5776 5776 5776 5776 5776 5776 5776 5776 5777 5778 5778 5779 5780 5781 5782 5783 5784 5785 5785 5786 5786 5787 5787 5787 5787 5787 5787 5787 5787 5787 5786 5786 5785 5784 5783
5776 5776 5776 5776 5776 5776 5775 5775 5774 5774 5774 5774 5775 5775 5775 5775 5776 5777 5777 5778 5779 5780 5781 5782 5783 5783 5784 5784 5784 5785 5785 5785 5785 5785 5785 5784 5784 5784 5783 5782 5781 5780
5774 5774 5774 5774 5774 5774 5774 5773 5773 5772 5772 5772 5773 5773 5773 5774 5774 5775 5776 5777 5777 5778 5779 5780 5781 5781 5782 5782 5782 5782 5782 5782 5782 5782 5782 5782 5782 5781 5781 5780 5779 5777
5772 5772 5772 5773 5773 5772 5772 5771 5771 5770 5770 5770 5770 5771 5771 5772 5773 5774 5774 5775 5776 5777 5778 5778 5779 5779 5780 5780 5780 5780 5780 5780 5780 5780 5780 5779 5779 5779 5778 5777 5776 5775
5770 5770 5771 5771 5771 5771 5770 5770 5769 5768 5768 5768 5769 5770 5770 5771 5772 5773 5773 5774 5775 5776 5776 5776 5777 5777 5777 5778 5778 5777 5777 5777 5777 5777 5777 5777 5776 5776 5775 5774 5773 5772
5768 5768 5769 5770 5770 5770 5769 5769 5769 5768 5767 5767 5768 5769 5770 5770 5771 5772 5772 5773 5773 5774 5774 5775 5775 5775 5775 5775 5775 5775 5775 5774 5774 5774 5774 5774 5773 5773 5772 5771 5770 5769
5767 5767 5768 5769 5769 5769 5768 5768 5768 5767 5767 5767 5768 5769 5769 5770 5770 5770 5771 5771 5772 5772 5772 5773 5773 5773 5773 5773 5773 5772 5772 5772 5772 5771 5771 5771 5770 5770 5769 5768 5767 5766
5766 5766 5767 5767 5768 5767 5767 5767 5767 5767 5767 5767 5767 5768 5768 5769 5769 5769 5769 5770 5770 5771 5771 5771 5771 5771 5771 5770 5770 5770 5769 5769 5769 5769 5768 5768 5767 5767 5766 5765 5764 5763
5764 5765 5765 5766 5766 5766 5766 5766 5766 5766 5766 5766 5766 5767 5767 5767 5768 5768 5768 5768 5768 5769 5768 5768 5768 5768 5768 5768 5767 5767 5767 5767 5766 5766 5766 5765 5765 5764 5763 5762 5762 5761
5762 5763 5763 5764 5764 5764 5764 5764 5765 5765 5765 5765 5765 5765 5765 5765 5766 5766 5766 5767 5767 5767 5766 5766 5766 5765 5765 5765 5765 5764 5764 5764 5764 5764 5763 5763 5762 5761 5761 5760 5759 5758
5760 5761 5761 5762 5762 5762 5762 5763 5763 5763 5763 5763 5763 5763 5764 5764 5764 5764 5765 5765 5765 5764 5764 5764 5763 5763 5763 5762 5762 5762 5762 5761 5761 5761 5761 5760 5759 5759 5758 5757 5756 5755
5758 5758 5759 5759 5760 5760 5760 5760 5761 5761 5761 5761 5761 5761 5762 5762 5762 5762 5762 5763 5762 5762 5761 5761 5760 5760 5760 5760 5760 5759 5759 5759 5759 5758 5758 5757 5756 5755 5755 5754 5753 5752
5755 5755 5756 5757 5757 5758 5758 5758 5758 5758 5758 5758 5758 5758 5759 5759 5759 5760 5760 5760 5759 5759 5758 5758 5758 5758 5758 5757 5757 5757 5757 5756 5756 5755 5755 5754 5753 5752 5752 5751 5750 5749
5752 5753 5753 5754 5754 5755 5755 5755 5755 5755 5755 5755 5755 5756 5756 5756 5756 5757 5757 5757 5756 5756 5755 5755 5755 5755 5755 5755 5754 5754 5754 5753 5753 5752 5751 5751 5750 5749 5749 5748 5747 5746
5749 5750 5750 5751 5751 5751 5752 5752 5752 5752 5752 5752 5752 5753 5753 5753 5753 5754 5754 5753 5753 5753 5753 5753 5752 5752 5752 5752 5751 5751 5751 5750 5750 5749 5748 5748 5747 5747 5746 5745 5744 5743
5747 5747 5748 5748 5748 5748 5748 5749 5749 5749 5749 5749 5750 5750 5750 5751 5751 5751 5750 5750 5750 5750 5750 5749 5749 5749 5748 5748 5748 5748 5747 5747 5747 5746 5746 5745 5744 5744 5743 5742 5741 5740